STARLINK-32804, 62846

Orbit data source: Space-Track

STARLINK-32804, 62846 is a payload satellite owned by SpaceX/Seattle (US) in LEO that was launched on Mon, 27 Jan 2025 UTC via an FALCON 9 launch vehicle from the Air Force Eastern Test Range (AFETR). Payload-class satellites include a variety of spacecraft equipped with specific instruments for various scientific and technological missions. These include communications satellites like Starlink; space stations such as the ISS; scientific satellites like the Hubble; Earth observation satellites from companies like Planet Labs, Umbra, and HawkEye 360; GPS; miniature CubeSats for education and research; and military/defense satellites.

Loading next visibility...
Identifier
62846, 2025-019T
Orbit
LEO
Last TLE update
10 hours ago
Origin
Manufacturer
SpaceX/Seattle
Mission
Operational Commercial Communications
Bus & Motor
STARLINK V2M, Unknown motor
Mass
730 kg wet, ~700 kg dry
Launch date (UTC)
2025-01-27 (5 months ago)
Launch vehicle
FALCON 9
Launch site
Air Force Eastern Test Range (AFETR)
Object type
Payload
Rocket body
Debris
Shape & HBR
Box + 2 Pan, 29 m
Radar Cross Section
33.884 m², Large (>1 m²)

Expand to show TLE details & history

TLE from 10 hours ago
0 STARLINK-32804
1 62846U 25019T   25189.88403449  .00011929  00000-0  44219-3 0  9993
2 62846  42.9990  25.8987 0001279 261.3378  98.7328 15.27589265 24967
Epoch: 2025-07-08T21:13Z
TLE epoch observation values (Epoch: 2025-07-08T21:13:00.579Z)
Latitude
-0.00009°
Longitude
140.57357°
Altitude
482.93 km
Speed
7.626 km/s
True Right ascension
01h 43m 35s
True Declination
0° 00' 00"
Sunlit
Object was in daylight at epoch
Visualization orbit readout
Latitude
38.98918°
Longitude
-162.02387°
Altitude
486.085 km
Speed
7.627 km/s
Apparent Right ascension
06h 17m 00s
Apparent Declination
1° 17' 31"
Sunlit
Object is in daylight
Visualization observer readout
Local Sidereal Time
19:04:49
Azimuth
17.803° NNE
Elevation
-47.366°
Doppler factor
1
Orbital elements
Apogee altitude
485.844 km
Perigee altitude
484.089 km
Semi-major axis
6,863.104 km
Eccentricity
0.00013
Inclination
42.999°
RAAN
25.8987°
Arg. of periapsis
261.3378°
True anomaly
Unknown
Mean anomaly
98.7328°
Eccentric anomaly
Unknown
Mean motion
3.81735 °/min
Orbital period
94.31 mins
BSTAR
0.00044219
Loading maneuver chart data...
Loading SW <> Apogee altitude chart data...
Loading historical data...
Loading historical data...
Loading historical data...
Loading historical data...
Loading historical data...
Loading historical data...
Loading historical data...

STARLINK-32804 Visibility forecast

Observer location: undefined°, undefined°

Span
Click to sort rows by Start time (UTC) header in descending order
Start Az.
Max El. time (UTC)
Max El. Az.
Max El.
End time (UTC)
End Az.
5 mins2025-07-09 16:15:24.709Z209.758° SW2025-07-09 16:18:24.709Z131.795° SE29.027°2025-07-09 16:20:24.709Z90.655° ESE
6 mins2025-07-09 17:54:24.709Z266.079° W2025-07-09 17:56:24.709Z307.244° NW41.949°2025-07-09 18:00:24.709Z70.749° E
6 mins2025-07-09 19:33:24.709Z291.741° WNW2025-07-09 19:36:24.709Z33.892° NE37.062°2025-07-09 19:39:24.709Z81.981° E
6 mins2025-07-09 21:12:24.709Z284.033° WNW2025-07-09 21:15:24.709Z153.363° SSE42.07°2025-07-09 21:18:24.709Z118.189° SE
|